This is the latest recevied weather packets stored in our database for station/object KD8FRE. If no packets are shown the sender has not sent any weather packets the latest 10 day(s).
| Time | Temp. | Humidity | Pressure | Rain* | Wind** | Luminosity | Snow |
|---|---|---|---|---|---|---|---|
| 1778078631 | 7.78° C | 63% | 1013 hPa | 0 mm | - | 152 W/m² | - |
| 1778078330 | 7.78° C | 64% | 1012.8 hPa | 0 mm | - | 180 W/m² | - |
| 1778078027 | 8.33° C | 60% | 1012.6 hPa | 0 mm | - | 222 W/m² | - |
| 1778077725 | 8.33° C | 63% | 1012.6 hPa | 0 mm | - | 153 W/m² | - |
| 1778077423 | 8.33° C | 64% | 1012.7 hPa | 0 mm | - | 380 W/m² | - |
| 1778077121 | 7.78° C | 65% | 1012.5 hPa | 0 mm | - | 264 W/m² | - |
| 1778076819 | 7.78° C | 64% | 1012.6 hPa | 0 mm | - | 187 W/m² | - |
| 1778076517 | 7.78° C | 67% | 1012.6 hPa | 0 mm | - | 187 W/m² | - |
| 1778076213 | 7.22° C | 68% | 1012.7 hPa | 0 mm | - | 130 W/m² | - |
| 1778075910 | 7.22° C | 66% | 1012.4 hPa | 0 mm | - | 154 W/m² | - |
| 1778075607 | 7.22° C | 67% | 1012.3 hPa | 0 mm | - | 299 W/m² | - |
| 1778075303 | 7.22° C | 67% | 1012.2 hPa | 0 mm | - | 292 W/m² | - |
| 1778075000 | 7.22° C | 68% | 1012.4 hPa | 0 mm | - | 252 W/m² | - |
| 1778074697 | 7.22° C | 68% | 1012.4 hPa | 0 mm | - | 244 W/m² | - |
| 1778074393 | 7.78° C | 68% | 1012.1 hPa | 0 mm | - | 344 W/m² | - |
| 1778074090 | 7.78° C | 68% | 1012.1 hPa | 0 mm | - | 216 W/m² | - |
| 1778073788 | 7.22° C | 69% | 1012.1 hPa | 0 mm | - | 340 W/m² | - |
| 1778073486 | 7.22° C | 72% | 1012.2 hPa | 0 mm | - | 242 W/m² | - |
| 1778073181 | 7.22° C | 74% | 1011.9 hPa | 0 mm | - | 202 W/m² | - |
| 1778072878 | 7.22° C | 73% | 1011.9 hPa | 0 mm | - | 222 W/m² | - |
| 1778072575 | 6.67° C | 76% | 1011.7 hPa | 0 mm | - | 182 W/m² | - |
| 1778072273 | 7.22° C | 76% | 1011.8 hPa | 0 mm | - | 104 W/m² | - |
| 1778071971 | 6.67° C | 78% | 1011.8 hPa | 0 mm | - | 243 W/m² | - |
| 1778071669 | 6.67° C | 77% | 1011.5 hPa | 0 mm | - | 202 W/m² | - |
| 1778071366 | 7.22° C | 76% | 1011.4 hPa | 0 mm | - | 153 W/m² | - |
* Rain latest hour (hover to see other rain measurements)
** Current wind speed in m/s (hover to see current wind gust speed)